Date Time,Air Temp,Sky Temp,Clarity,Light Level,Rain Sensor,Readings
2011-01-15 00:01:24,15.5,3.7,11.8,0.0,2.4,112
2011-01-15 00:06:24,15.6,2.5,13.1,0.1,2.3,111
2011-01-15 00:11:24,15.6,3.6,12.0,0.0,2.3,111
2011-01-15 00:16:24,15.7,3.3,12.4,0.0,2.3,112
2011-01-15 00:21:24,15.7,2.9,12.9,0.0,2.3,111
2011-01-15 00:26:24,15.7,3.4,12.3,0.0,2.3,112
2011-01-15 00:31:24,15.8,1.1,14.6,0.0,2.3,111
2011-01-15 00:36:24,15.8,3.0,12.7,0.0,2.3,111
2011-01-15 00:41:24,15.8,2.7,13.1,0.1,2.3,112
2011-01-15 00:46:24,15.8,2.6,13.2,0.1,2.2,111
2011-01-15 00:51:24,15.9,4.0,11.9,0.0,2.2,111
2011-01-15 00:56:24,15.9,4.4,11.5,0.0,2.2,112
2011-01-15 01:01:24,15.9,4.7,11.2,0.0,2.2,111
2011-01-15 01:06:24,15.9,4.9,11.0,0.0,2.2,112
2011-01-15 01:11:24,15.9,4.7,11.2,0.0,2.2,112
2011-01-15 01:16:24,15.9,4.5,11.4,0.0,2.2,112
2011-01-15 01:21:24,15.9,5.0,10.9,0.0,2.2,111
2011-01-15 01:26:24,15.7,4.6,11.1,0.0,2.2,112
2011-01-15 01:31:24,16.0,4.7,11.3,0.0,2.3,112
2011-01-15 01:36:24,16.1,4.7,11.3,0.0,2.3,112
2011-01-15 01:41:24,16.2,4.9,11.3,0.0,2.3,111
2011-01-15 01:46:24,16.2,4.8,11.4,0.0,2.3,112
2011-01-15 01:51:24,16.3,4.6,11.7,0.0,2.3,111
2011-01-15 01:56:24,16.3,4.7,11.6,0.0,2.3,112
2011-01-15 02:01:24,16.0,4.3,11.8,0.0,2.4,111
2011-01-15 02:06:24,16.3,4.4,12.0,0.0,2.4,112
2011-01-15 02:11:24,16.4,4.1,12.2,0.0,2.4,112
2011-01-15 02:16:24,16.4,3.8,12.6,0.0,2.5,111
2011-01-15 02:21:24,16.4,4.0,12.4,0.0,2.5,112
2011-01-15 02:26:24,16.4,3.6,12.8,0.0,2.5,111
2011-01-15 02:31:24,16.4,3.5,12.9,0.0,2.5,111
2011-01-15 02:36:24,16.4,2.1,14.4,0.0,2.5,111
2011-01-15 02:41:24,16.4,3.2,13.3,0.0,2.5,112
2011-01-15 02:46:24,16.4,3.4,13.0,0.0,2.5,111
2011-01-15 02:51:24,16.5,4.2,12.3,0.0,2.5,111
2011-01-15 02:56:24,16.5,4.3,12.1,0.0,2.5,112
2011-01-15 03:01:24,16.5,3.8,12.6,0.0,2.5,111
2011-01-15 03:06:24,16.5,4.3,12.2,0.0,2.5,111
2011-01-15 03:11:24,16.5,4.5,12.0,0.0,2.5,112
2011-01-15 03:16:24,16.5,4.1,12.4,0.0,2.5,111
2011-01-15 03:21:24,16.5,4.3,12.2,0.0,2.6,112
2011-01-15 03:26:24,16.5,4.0,12.5,0.0,2.5,111
2011-01-15 03:31:24,16.5,4.3,12.2,0.0,2.5,111
2011-01-15 03:36:24,16.5,3.9,12.6,0.0,2.6,111
2011-01-15 03:41:24,16.6,3.5,13.1,0.0,2.7,111
2011-01-15 03:46:24,16.6,4.2,12.3,0.0,2.6,111
2011-01-15 03:51:24,16.6,4.2,12.3,0.0,2.6,112
2011-01-15 03:56:24,16.6,4.3,12.3,0.0,2.6,112
2011-01-15 04:01:24,16.6,4.5,12.2,0.0,2.7,111
2011-01-15 04:06:24,16.6,4.2,12.4,0.0,2.7,112
2011-01-15 04:11:24,16.6,4.7,12.0,0.0,2.6,112
2011-01-15 04:16:24,16.6,4.4,12.2,0.0,2.6,112
2011-01-15 04:21:24,16.6,4.1,12.6,0.0,2.7,111
2011-01-15 04:26:24,16.7,4.4,12.2,0.0,2.7,112
2011-01-15 04:31:24,16.7,4.1,12.6,0.0,2.7,112
2011-01-15 04:36:24,16.7,4.2,12.4,0.0,2.7,111
2011-01-15 04:41:24,16.6,3.9,12.7,0.0,2.7,112
2011-01-15 04:46:24,16.6,3.9,12.8,0.0,2.7,111
2011-01-15 04:51:24,16.7,4.3,12.4,0.0,2.7,112
2011-01-15 04:56:24,16.7,3.8,12.9,0.0,2.7,112
2011-01-15 05:01:24,16.7,3.8,12.9,0.0,2.6,111
2011-01-15 05:06:24,16.7,3.9,12.8,0.0,2.7,112
2011-01-15 05:11:24,16.7,3.9,12.8,0.0,2.7,111
2011-01-15 05:16:24,16.7,4.2,12.5,0.0,2.7,112
2011-01-15 05:21:24,16.6,4.2,12.5,0.0,2.7,112
2011-01-15 05:26:24,16.7,4.1,12.5,0.0,2.7,111
2011-01-15 05:31:24,16.7,4.0,12.7,0.0,2.7,111
2011-01-15 05:36:24,16.7,4.1,12.5,0.0,2.7,112
2011-01-15 05:41:24,16.6,3.7,13.0,0.0,2.8,111
2011-01-15 05:46:24,16.6,4.2,12.4,0.0,2.7,112
2011-01-15 05:51:24,16.6,4.0,12.6,0.0,2.7,111
2011-01-15 05:56:24,16.6,4.2,12.4,0.0,2.9,112
2011-01-15 06:01:24,16.6,3.9,12.7,0.0,3.0,111
2011-01-15 06:06:24,16.5,3.5,13.0,0.0,3.5,111
2011-01-15 06:11:24,16.5,3.5,13.0,0.0,4.1,112
2011-01-15 06:16:24,16.4,3.3,13.1,0.0,3.7,111
2011-01-15 06:21:24,16.3,3.7,12.7,0.0,3.9,111
2011-01-15 06:26:24,16.3,4.2,12.1,0.0,2.8,112
2011-01-15 06:31:24,16.3,3.9,12.4,0.0,2.5,111
2011-01-15 06:36:24,16.3,4.0,12.4,0.0,2.9,112
2011-01-15 06:41:24,16.3,3.8,12.5,0.0,3.7,111
2011-01-15 06:46:24,16.3,3.5,12.9,0.0,3.3,111
2011-01-15 06:51:24,16.3,3.8,12.5,0.0,2.9,112
2011-01-15 06:56:24,16.0,4.0,12.0,0.0,2.7,111
2011-01-15 07:01:24,16.4,4.4,12.0,0.0,2.5,112
2011-01-15 07:06:24,16.4,4.5,11.9,0.1,2.5,111
2011-01-15 07:11:24,16.4,4.3,12.2,0.2,2.6,112
2011-01-15 07:16:24,16.5,4.1,12.4,0.4,2.7,111
2011-01-15 07:21:24,16.5,4.3,12.3,0.9,2.7,112
2011-01-15 07:26:24,16.6,4.2,12.4,1.9,2.8,111
2011-01-15 07:31:24,16.6,4.3,12.3,3.8,2.8,112
2011-01-15 07:36:24,16.3,3.7,12.6,6.6,3.4,112
2011-01-15 07:41:24,16.6,3.7,12.9,10.3,4.5,111
2011-01-15 07:46:24,16.6,3.1,13.5,16.2,5.0,111
2011-01-15 07:51:24,16.6,2.2,14.3,20.1,5.0,112
2011-01-15 07:56:24,16.5,3.5,13.0,21.9,4.5,111
2011-01-15 08:01:24,16.4,3.6,12.8,24.3,2.9,112
2011-01-15 08:06:24,16.5,3.6,12.8,25.8,2.7,111
2011-01-15 08:11:24,16.5,3.6,12.9,27.0,2.7,111
2011-01-15 08:16:24,16.6,3.7,12.9,28.9,2.7,112
2011-01-15 08:21:24,16.6,3.7,12.9,30.0,2.7,111
2011-01-15 08:26:24,16.6,3.7,12.9,30.6,2.7,112
2011-01-15 08:31:24,16.7,3.8,12.8,31.1,2.7,112
2011-01-15 08:36:24,16.7,4.1,12.6,31.2,2.9,111
2011-01-15 08:41:24,16.7,3.9,12.8,31.2,3.3,112
2011-01-15 08:46:24,16.6,2.4,14.3,31.0,6.0,111
2011-01-15 08:51:24,16.5,3.4,13.1,31.1,4.5,111
2011-01-15 08:56:24,16.5,3.9,12.6,31.0,4.9,111
2011-01-15 09:01:24,16.5,4.0,12.5,31.2,4.0,112
2011-01-15 09:06:24,16.4,4.0,12.5,31.4,3.7,111
2011-01-15 09:11:24,16.5,3.4,13.0,31.4,4.0,112
2011-01-15 09:16:24,16.4,4.0,12.4,31.7,2.8,111
2011-01-15 09:21:24,16.5,4.2,12.3,31.8,2.7,112
2011-01-15 09:26:24,16.6,4.0,12.6,31.9,2.7,111
2011-01-15 09:31:24,16.7,4.2,12.5,31.9,2.7,112
2011-01-15 09:36:24,16.8,4.2,12.6,31.9,2.7,112
2011-01-15 09:41:24,16.8,4.4,12.4,32.0,2.7,111
2011-01-15 09:46:24,16.5,4.4,12.1,32.1,2.7,112
2011-01-15 09:51:24,16.9,4.0,12.8,32.2,2.6,111
2011-01-15 09:56:24,16.9,4.1,12.8,32.2,2.6,112
2011-01-15 10:01:24,16.9,4.4,12.5,32.2,2.6,111
2011-01-15 10:06:24,16.9,4.2,12.7,32.2,2.6,112
2011-01-15 10:11:25,16.9,4.2,12.7,32.1,2.6,111
2011-01-15 10:16:25,16.9,4.1,12.8,32.2,2.5,112
2011-01-15 10:21:25,16.9,4.1,12.9,32.3,2.5,111
2011-01-15 10:26:25,16.9,4.5,12.4,32.3,2.5,112
2011-01-15 10:31:25,16.9,4.4,12.5,32.3,2.5,112
2011-01-15 10:36:25,16.9,4.4,12.6,32.3,2.6,111
2011-01-15 10:41:25,16.9,4.2,12.8,32.3,2.6,112
2011-01-15 10:46:25,16.9,4.3,12.7,32.2,2.6,111
2011-01-15 10:51:25,16.9,4.4,12.6,32.2,2.6,112
2011-01-15 10:56:25,16.9,4.2,12.7,32.1,2.5,111
2011-01-15 11:01:25,16.9,4.2,12.7,32.1,2.7,112
2011-01-15 11:06:25,16.9,4.2,12.7,32.1,2.7,111
2011-01-15 11:11:25,16.9,4.2,12.7,32.2,2.7,112
2011-01-15 11:16:25,16.9,4.0,12.9,32.2,2.7,111
2011-01-15 11:21:25,16.9,4.0,12.9,32.3,2.6,112
2011-01-15 11:26:25,16.9,3.9,13.0,32.3,2.6,111
2011-01-15 11:31:25,16.9,3.7,13.2,32.3,2.6,112
2011-01-15 11:36:25,16.9,3.9,13.0,32.2,2.6,111
2011-01-15 11:41:25,16.9,4.0,12.8,32.1,2.6,112
2011-01-15 11:46:25,16.9,3.8,13.0,32.1,2.8,111
2011-01-15 11:51:25,16.8,4.1,12.7,32.2,2.6,112
2011-01-15 11:56:25,16.8,4.0,12.8,32.2,2.7,111
2011-01-15 12:01:25,16.8,4.1,12.8,32.2,2.7,112
2011-01-15 12:06:25,16.8,4.2,12.6,32.1,2.7,111
2011-01-15 12:11:25,16.8,4.1,12.8,32.1,2.7,112
2011-01-15 12:16:25,16.8,3.8,13.0,32.0,3.1,111
2011-01-15 12:21:25,16.7,3.3,13.4,32.0,3.6,111
2011-01-15 12:26:25,16.5,3.5,13.0,32.0,3.4,112
2011-01-15 12:31:25,16.4,3.5,12.9,32.1,3.2,111
2011-01-15 12:36:25,16.4,3.6,12.9,32.0,3.1,111
2011-01-15 12:41:25,16.4,3.5,12.9,32.0,3.7,111
2011-01-15 12:46:25,16.4,3.0,13.4,32.1,4.2,112
2011-01-15 12:51:25,16.1,3.0,13.2,32.1,5.9,111
2011-01-15 12:56:25,16.4,2.2,14.1,32.1,7.5,112
2011-01-15 13:01:25,16.4,2.4,14.0,32.0,8.6,111
2011-01-15 13:06:25,16.4,2.5,13.9,32.0,7.2,111
2011-01-15 13:11:25,16.3,2.4,13.9,32.0,6.5,111
2011-01-15 13:16:25,16.3,2.7,13.6,32.0,6.3,111
2011-01-15 13:21:25,16.3,2.7,13.7,32.0,6.7,112
2011-01-15 13:26:25,16.4,3.3,13.1,32.1,5.2,111
2011-01-15 13:31:25,16.4,3.4,12.9,32.1,5.4,111
2011-01-15 13:36:25,16.4,3.4,12.9,32.0,5.4,112
2011-01-15 13:41:25,16.4,4.2,12.1,32.0,4.3,111
2011-01-15 13:46:25,16.4,3.8,12.6,32.0,3.8,112
2011-01-15 13:51:25,16.5,4.0,12.5,32.0,3.8,111
2011-01-15 13:56:25,16.7,4.3,12.4,32.1,3.7,112
2011-01-15 14:01:25,16.8,3.9,12.9,32.0,3.6,111
2011-01-15 14:06:25,16.8,4.1,12.7,32.0,3.6,112
2011-01-15 14:11:25,16.8,4.1,12.7,32.1,3.5,111
2011-01-15 14:16:25,16.9,4.1,12.7,32.2,3.5,112
2011-01-15 14:21:25,16.9,4.1,12.8,32.2,3.5,111
2011-01-15 14:26:25,16.9,4.1,12.8,32.2,3.5,112
2011-01-15 14:31:25,17.0,4.1,12.9,32.2,3.5,112
2011-01-15 14:36:25,17.0,4.0,13.0,32.3,3.5,111
2011-01-15 14:41:25,17.0,3.9,13.1,32.2,3.4,111
2011-01-15 14:46:25,17.1,3.7,13.4,32.2,3.4,112
2011-01-15 14:51:25,17.1,3.7,13.4,32.2,3.4,111
2011-01-15 14:56:25,17.1,3.8,13.3,32.1,3.4,112
2011-01-15 15:01:25,16.8,3.6,13.2,32.1,3.4,111
2011-01-15 15:06:25,17.1,3.8,13.3,32.0,3.5,112
2011-01-15 15:11:25,17.1,3.7,13.4,32.0,3.4,111
2011-01-15 15:16:25,17.1,3.4,13.7,32.0,3.5,112
2011-01-15 15:21:25,17.1,3.8,13.4,31.9,3.5,112
2011-01-15 15:26:25,17.1,3.7,13.4,31.8,3.5,111
2011-01-15 15:31:25,17.1,3.9,13.1,31.6,3.6,112
2011-01-15 15:36:25,17.0,4.0,13.0,31.3,3.6,111
2011-01-15 15:41:25,16.7,3.9,12.8,31.2,3.7,112
2011-01-15 15:46:25,17.0,4.0,13.0,30.9,3.7,112
2011-01-15 15:51:25,17.0,4.0,13.0,30.6,3.7,111
2011-01-15 15:56:25,17.0,4.4,12.6,30.0,3.8,112
2011-01-15 16:01:25,17.0,4.1,12.9,29.9,3.9,111
2011-01-15 16:06:25,17.0,4.2,12.8,29.2,3.8,112
2011-01-15 16:11:25,17.0,3.9,13.1,29.1,3.8,112
2011-01-15 16:16:25,17.0,4.2,12.8,28.5,3.9,111
2011-01-15 16:21:25,17.0,4.1,12.9,27.2,3.8,112
2011-01-15 16:26:25,17.0,4.2,12.8,25.9,3.8,111
2011-01-15 16:31:25,16.7,4.0,12.7,23.9,3.9,112
2011-01-15 16:36:25,17.0,4.2,12.8,21.5,3.9,111
2011-01-15 16:41:25,17.0,3.9,13.1,18.3,3.9,111
2011-01-15 16:46:25,17.0,3.9,13.1,14.6,3.9,112
2011-01-15 16:51:25,17.0,3.7,13.3,10.5,3.6,111
2011-01-15 16:56:25,17.0,4.0,13.0,6.6,3.8,111
2011-01-15 17:01:25,17.0,3.6,13.4,4.2,3.7,112
2011-01-15 17:06:25,17.0,3.6,13.4,2.4,3.7,111
2011-01-15 17:11:25,17.0,3.3,13.7,1.3,3.6,111
2011-01-15 17:16:25,17.0,3.7,13.3,0.6,3.5,112
2011-01-15 17:21:25,17.0,3.3,13.7,0.4,3.5,111
2011-01-15 17:26:25,17.1,3.2,13.9,0.2,3.5,111
2011-01-15 17:31:25,17.1,3.4,13.7,0.2,3.5,111
2011-01-15 17:36:25,17.1,3.4,13.6,0.1,3.5,112
2011-01-15 17:41:25,17.0,3.3,13.7,0.1,3.5,111
2011-01-15 17:46:25,17.1,3.1,13.9,0.1,3.4,111
2011-01-15 17:51:25,16.4,3.0,13.4,0.2,3.4,111
2011-01-15 17:56:25,17.0,3.3,13.7,0.1,3.5,111
2011-01-15 18:01:25,17.0,3.0,14.0,0.2,3.4,111
2011-01-15 18:06:25,17.0,2.9,14.1,0.1,3.4,111
2011-01-15 18:11:25,17.0,3.1,13.9,0.1,3.5,112
2011-01-15 18:16:25,17.0,3.0,14.0,0.2,3.4,111
2011-01-15 18:21:25,17.0,2.8,14.2,0.2,3.4,112
2011-01-15 18:26:25,17.0,3.0,14.1,0.2,3.3,111
2011-01-15 18:31:25,17.0,3.3,13.8,0.2,3.3,111
2011-01-15 18:36:25,17.0,3.1,13.9,0.1,3.4,112
2011-01-15 18:41:25,17.0,3.3,13.7,0.2,3.4,111
2011-01-15 18:46:25,17.0,3.4,13.6,0.2,3.4,112
2011-01-15 18:51:25,17.0,3.3,13.7,0.2,3.4,111
2011-01-15 18:56:25,17.0,3.1,13.9,0.2,3.4,111
2011-01-15 19:01:25,17.0,2.7,14.3,0.2,3.3,111
2011-01-15 19:06:25,17.0,3.1,14.0,0.2,3.3,111
2011-01-15 19:11:25,17.0,3.2,13.8,0.2,3.4,111
2011-01-15 19:16:25,17.0,3.1,13.9,0.2,3.3,112
2011-01-15 19:21:25,17.1,2.9,14.2,0.2,3.2,111
2011-01-15 19:26:25,17.1,3.0,14.1,0.2,3.2,111
2011-01-15 19:31:25,17.0,2.8,14.2,0.2,3.3,111
2011-01-15 19:36:25,17.0,2.7,14.3,0.2,3.2,112
2011-01-15 19:41:25,17.0,2.8,14.3,0.3,3.2,111
2011-01-15 19:46:25,17.0,2.6,14.4,0.3,3.2,111
2011-01-15 19:51:25,17.0,2.7,14.3,0.3,3.3,111
2011-01-15 19:56:25,17.0,2.4,14.6,0.2,3.2,112
2011-01-15 20:01:25,17.0,2.5,14.5,0.2,3.2,111
2011-01-15 20:06:25,17.0,2.5,14.5,0.2,3.3,111
2011-01-15 20:11:25,17.0,2.6,14.4,0.2,3.3,111
2011-01-15 20:16:25,17.0,2.5,14.5,0.2,3.2,111
2011-01-15 20:21:25,16.7,2.4,14.3,0.2,3.2,111
2011-01-15 20:26:25,17.0,2.4,14.6,0.2,3.3,111
2011-01-15 20:31:25,17.0,2.6,14.4,0.2,3.2,111
2011-01-15 20:36:25,16.7,2.6,14.1,0.2,3.2,111
2011-01-15 20:41:25,17.0,2.6,14.4,0.3,3.3,112
2011-01-15 20:46:25,17.0,2.4,14.5,0.3,3.3,111
2011-01-15 20:51:25,16.9,2.4,14.6,0.3,3.3,110
2011-01-15 20:56:25,16.9,1.5,15.4,0.4,3.3,112
2011-01-15 21:01:25,16.9,1.2,15.7,0.4,3.3,111
2011-01-15 21:06:25,16.9,1.7,15.2,0.4,3.3,111
2011-01-15 21:11:25,16.9,1.3,15.6,0.4,3.3,110
2011-01-15 21:16:25,16.9,2.3,14.5,0.3,3.3,111
2011-01-15 21:21:25,16.9,2.4,14.5,0.3,3.3,112
2011-01-15 21:26:25,16.9,2.8,14.1,0.3,3.3,111
2011-01-15 21:31:25,16.8,2.5,14.4,0.3,3.2,110
2011-01-15 21:36:25,16.9,2.9,14.0,0.3,3.1,111
2011-01-15 21:41:25,16.6,2.4,14.2,0.3,3.1,111
2011-01-15 21:46:25,16.9,2.6,14.3,0.3,3.2,112
2011-01-15 21:51:25,16.9,3.1,13.9,0.2,3.2,111
2011-01-15 21:56:25,16.9,2.8,14.1,0.3,3.3,111
2011-01-15 22:01:25,16.9,2.7,14.2,0.3,3.3,111
2011-01-15 22:06:25,16.9,2.1,14.8,0.3,3.3,112
2011-01-15 22:11:25,16.9,2.1,14.8,0.3,3.3,111
2011-01-15 22:16:25,16.9,2.1,14.8,0.3,3.3,111
2011-01-15 22:21:25,16.9,2.2,14.7,0.3,3.2,111
2011-01-15 22:26:25,17.0,2.7,14.3,0.3,3.3,111
2011-01-15 22:31:25,17.0,2.9,14.1,0.3,3.3,111
2011-01-15 22:36:25,17.0,2.7,14.3,0.3,3.3,111
2011-01-15 22:41:25,17.0,3.1,13.8,0.3,3.3,112
2011-01-15 22:46:25,16.9,2.4,14.5,0.3,3.4,111
2011-01-15 22:51:25,17.7,-2.3,20.0,0.4,3.4,112
2011-01-15 22:56:25,18.3,1.2,17.1,0.3,3.6,111
2011-01-15 23:01:25,17.9,-3.7,21.7,0.5,3.4,111
2011-01-15 23:06:25,20.2,-5.7,25.8,0.4,3.6,112
2011-01-15 23:11:25,21.0,-9.7,30.7,0.5,3.5,112
2011-01-15 23:16:25,21.1,-11.0,32.1,0.5,3.5,111
2011-01-15 23:21:25,20.5,1.1,19.4,0.3,3.5,112
2011-01-15 23:26:25,18.0,4.7,13.4,0.2,3.6,112
2011-01-15 23:31:25,17.3,4.6,12.7,0.2,3.4,111
2011-01-15 23:36:25,17.0,4.6,12.4,0.1,3.3,111
2011-01-15 23:41:25,17.0,4.1,12.9,0.2,3.4,112
2011-01-15 23:46:25,17.0,5.2,11.8,0.1,3.5,112
2011-01-15 23:51:25,17.0,5.8,11.3,0.1,3.5,112
2011-01-15 23:56:25,17.0,5.7,11.3,0.1,3.5,111
